Location: Proctor
(47.8934°N, 114.3048°W)
Time: 06:48:55
(UTC+00:00)

ISS - Pass Details

Date: 24 May 2024
Orbit: 409 x 421 km, 51.6° (Epoch: 13 June)

Event Time Altitude Azimuth Distance (km) Brightness Sun altitude
Rises 04:01:55 0° 292° (WNW) 2,378 1.7 -6.5°
Reaches altitude 10° 04:04:02 10° 294° (WNW) 1,509 0.5 -6.7°
Maximum altitude 04:07:25 75° 21° (NNE) 439 -3.6 -7.1°
Drops below altitude 10° 04:10:46 10° 107° (ESE) 1,496 -1.5 -7.6°
Enters shadow 04:11:07 - 107° (ESE) 1,633 -1.3 -7.6°
